This demonstration page uses our WeatherBlox Daily Observations layout. Learn more.

Left ArrowRight Arrow

Hourly Observations for August 22, 2021

Temp ( °F °C ) Dew Point ( °F °C ) Humidity (%) Winds ( mph kmh ) Pressure ( in mb ) Visibility ( mi km ) Precip ( " mm )
12:51 am 00:51 Mostly Clear 76 24.4 56 13.3 50 50 Calm 29.71 1006 10 16 0.00 0.00
1:51 am 01:51 Clear 72 22.2 58 14.4 61 61 Calm 29.72 1006 10 16 0.00 0.00
2:51 am 02:51 Clear 73 22.8 58 14.4 59 59 Calm 29.70 1006 10 16 0.00 0.00
3:51 am 03:51 Clear 71 21.7 57 13.9 61 61 Calm 29.72 1006 10 16 0.00 0.00
4:51 am 04:51 Clear 69 20.6 57 13.9 66 66 Calm 29.72 1007 10 16 0.00 0.00
5:51 am 05:51 Sunny 69 20.6 57 13.9 66 66 Calm 29.75 1007 10 16 0.00 0.00
6:51 am 06:51 Sunny 75 23.9 59 15 58 58 Calm 29.76 1008 10 16 0.00 0.00
7:51 am 07:51 Sunny 82 27.8 59 15 46 46 ESE 13 20 29.78 1008 10 16 0.00 0.00
8:51 am 08:51 Sunny 85 29.4 61 16.1 45 45 SSE 9 15 29.77 1008 10 16 0.00 0.00
9:51 am 09:51 Sunny 87 30.6 63 17.2 45 45 S 7 11 29.77 1008 10 16 0.00 0.00
10:51 am 10:51 Sunny 92 33.3 64 17.8 40 40 undefined N/A 29.76 1008 10 16 0.00 0.00
11:51 am 11:51 Sunny 94 34.4 65 18.3 38 38 SSE 12 19 29.73 1007 10 16 0.00 0.00
12:51 pm 12:51 Sunny 96 35.6 64 17.8 35 35 undefined N/A 29.70 1006 10 16 0.00 0.00
1:51 pm 13:51 Sunny 98 36.7 62 16.7 31 31 S 9 15 29.68 1005 10 16 0.00 0.00
2:51 pm 14:51 Sunny 98 36.7 59 15 27 27 NW 3 6 29.65 1004 10 16 0.00 0.00
3:51 pm 15:51 Mostly Sunny 100 37.8 60 15.6 27 27 SSE 9 15 29.64 1004 10 16 0.00 0.00
4:44 pm 16:44 Mostly Sunny 95 35 62 16.7 34 34 NW 20 31 29.53 1000 10 16 0.00 0.00
4:51 pm 16:51 Mostly Sunny 94 34.4 63 17.2 36 36 NW 20 31 29.65 1004 10 16 0.00 0.00
5:51 pm 17:51 Sunny 89 31.7 64 17.8 43 43 W 15 24 29.66 1004 10 16 0.00 0.00
6:51 pm 18:51 Sunny 87 30.6 65 18.3 48 48 NW 8 13 29.66 1004 10 16 0.00 0.00
7:51 pm 19:51 Clear 87 30.6 63 17.2 45 45 NW 8 13 29.68 1005 10 16 0.00 0.00
8:51 pm 20:51 Clear 84 28.9 66 18.9 55 55 N 7 11 29.70 1006 10 16 0.00 0.00
9:51 pm 21:51 Clear 84 28.9 62 16.7 48 48 Calm 29.70 1006 10 16 0.00 0.00
10:51 pm 22:51 Clear 81 27.2 63 17.2 54 54 NNW 3 6 29.72 1006 10 16 0.00 0.00
11:51 pm 23:51 Clear 79 26.1 63 17.2 58 58 N 5 7 29.72 1007 10 16 0.00 0.00

Powered by AerisWeather